Time,TemperatureF,DewpointF,PressureIn,WindDirection,WindDirectionDegrees,WindSpeedMPH,WindSpeedGustMPH,Humidity,HourlyPrecipIn,Conditions,Clouds,dailyrainin,SoftwareType,DateUTC
2013-05-23 00:00:00,37.6,35.5,29.81,West,270,0.0,0.0,92,0.09,,,0.00,WUHU216HW,2013-05-23 06:00:00,
2013-05-23 00:05:00,37.6,35.5,29.81,West,270,0.0,0.0,92,0.09,,,0.00,WUHU216HW,2013-05-23 06:05:00,
2013-05-23 00:30:00,37.4,35.3,29.81,NNW,338,0.0,0.0,92,0.07,,,0.00,WUHU216HW,2013-05-23 06:30:00,
2013-05-23 00:35:00,37.4,35.3,29.81,NNW,338,0.0,0.0,92,0.07,,,0.00,WUHU216HW,2013-05-23 06:35:00,
2013-05-23 01:00:00,36.9,34.7,29.80,NNW,338,0.4,0.4,92,0.07,,,0.04,WUHU216HW,2013-05-23 07:00:00,
2013-05-23 01:05:00,36.9,34.7,29.80,NNW,338,0.4,0.4,92,0.07,,,0.04,WUHU216HW,2013-05-23 07:05:00,
2013-05-23 01:30:00,35.1,33.2,29.80,WNW,293,0.0,0.0,93,0.05,,,0.07,WUHU216HW,2013-05-23 07:30:00,
2013-05-23 01:35:00,35.1,33.2,29.80,WNW,293,0.0,0.0,93,0.05,,,0.07,WUHU216HW,2013-05-23 07:35:00,
2013-05-23 02:00:00,34.0,32.1,29.79,WNW,293,0.0,0.0,93,0.02,,,0.09,WUHU216HW,2013-05-23 08:00:00,
2013-05-23 02:05:00,34.0,32.1,29.79,WNW,293,0.0,0.0,93,0.02,,,0.09,WUHU216HW,2013-05-23 08:05:00,
2013-05-23 02:30:00,33.5,31.3,29.79,WNW,293,0.0,0.0,92,0.00,,,0.09,WUHU216HW,2013-05-23 08:30:00,
2013-05-23 02:35:00,33.5,31.3,29.79,WNW,293,0.0,0.0,92,0.00,,,0.09,WUHU216HW,2013-05-23 08:35:00,
2013-05-23 03:00:00,33.1,31.1,29.78,WNW,293,0.0,0.0,92,0.00,,,0.09,WUHU216HW,2013-05-23 09:00:00,
2013-05-23 03:05:00,33.1,31.1,29.78,WNW,293,0.0,0.0,92,0.00,,,0.09,WUHU216HW,2013-05-23 09:05:00,
2013-05-23 03:30:00,32.9,31.2,29.78,WNW,293,0.0,0.0,93,0.00,,,0.09,WUHU216HW,2013-05-23 09:30:00,
2013-05-23 03:35:00,32.9,31.2,29.78,WNW,293,0.0,0.0,93,0.00,,,0.09,WUHU216HW,2013-05-23 09:35:00,
2013-05-23 04:00:00,32.9,31.2,29.79,WNW,293,0.0,0.0,93,0.00,,,0.09,WUHU216HW,2013-05-23 10:00:00,
2013-05-23 04:05:00,32.9,31.2,29.79,WNW,293,0.0,0.0,93,0.00,,,0.09,WUHU216HW,2013-05-23 10:05:00,
2013-05-23 04:30:00,32.8,31.0,29.79,WNW,293,0.0,0.0,93,0.00,,,0.09,WUHU216HW,2013-05-23 10:30:00,
2013-05-23 04:35:00,32.8,31.0,29.79,WNW,293,0.0,0.0,93,0.00,,,0.09,WUHU216HW,2013-05-23 10:35:00,
2013-05-23 05:00:00,32.8,31.0,29.79,WNW,293,0.0,0.0,93,0.00,,,0.09,WUHU216HW,2013-05-23 11:00:00,
2013-05-23 05:05:00,32.8,31.0,29.79,WNW,293,0.0,0.0,93,0.00,,,0.09,WUHU216HW,2013-05-23 11:05:00,
2013-05-23 05:30:00,32.8,31.0,29.78,WNW,293,0.0,0.0,93,0.00,,,0.09,WUHU216HW,2013-05-23 11:30:00,
2013-05-23 05:35:00,32.8,31.0,29.78,WNW,293,0.0,0.0,93,0.00,,,0.09,WUHU216HW,2013-05-23 11:35:00,
2013-05-23 06:00:00,32.8,31.0,29.77,WNW,293,0.0,0.0,93,0.00,,,0.09,WUHU216HW,2013-05-23 12:00:00,
2013-05-23 06:05:00,32.8,31.0,29.77,WNW,293,0.0,0.0,93,0.00,,,0.09,WUHU216HW,2013-05-23 12:05:00,
2013-05-23 06:09:00,32.8,31.0,29.77,WNW,293,0.0,0.0,93,0.00,,,0.09,WUHU216HW,2013-05-23 12:09:00,
2013-05-23 06:30:00,32.9,31.2,29.77,WNW,293,0.0,0.0,93,0.00,,,0.09,WUHU216HW,2013-05-23 12:30:00,
2013-05-23 06:35:00,32.9,31.2,29.77,WNW,293,0.0,0.0,93,0.00,,,0.09,WUHU216HW,2013-05-23 12:35:00,
2013-05-23 07:00:00,33.1,31.3,29.78,WNW,293,0.0,0.0,93,0.01,,,0.09,WUHU216HW,2013-05-23 13:00:00,
2013-05-23 07:05:00,33.1,31.3,29.78,WNW,293,0.0,0.0,93,0.01,,,0.09,WUHU216HW,2013-05-23 13:05:00,
2013-05-23 07:30:00,33.5,31.6,29.79,WNW,293,0.0,0.0,93,0.01,,,0.10,WUHU216HW,2013-05-23 13:30:00,
2013-05-23 07:35:00,33.5,31.6,29.79,WNW,293,0.0,0.0,93,0.01,,,0.10,WUHU216HW,2013-05-23 13:35:00,
2013-05-23 08:00:00,33.5,31.6,29.78,WNW,293,0.0,0.0,93,0.00,,,0.10,WUHU216HW,2013-05-23 14:00:00,
2013-05-23 08:05:00,33.5,31.6,29.78,WNW,293,0.0,0.0,93,0.00,,,0.10,WUHU216HW,2013-05-23 14:05:00,
2013-05-23 08:10:00,33.5,31.6,29.78,WNW,293,0.0,0.0,93,0.00,,,0.10,WUHU216HW,2013-05-23 14:10:00,
2013-05-23 08:30:00,33.8,32.2,29.79,WNW,293,0.0,0.0,94,0.00,,,0.10,WUHU216HW,2013-05-23 14:30:00,
2013-05-23 09:00:00,34.7,33.1,29.79,WNW,293,0.0,0.0,94,0.00,,,0.10,WUHU216HW,2013-05-23 15:00:00,
2013-05-23 09:04:00,34.9,33.3,29.79,WNW,293,0.0,0.0,94,0.00,,,0.10,WUHU216HW,2013-05-23 15:04:00,
2013-05-23 09:10:00,35.3,33.7,29.79,WNW,293,0.0,0.0,94,0.00,,,0.10,WUHU216HW,2013-05-23 15:10:00,
2013-05-23 09:15:00,35.5,33.8,29.79,WNW,293,0.0,0.0,94,0.00,,,0.10,WUHU216HW,2013-05-23 15:15:00,
2013-05-23 09:20:00,35.5,33.8,29.80,WNW,293,0.0,0.0,94,0.00,,,0.10,WUHU216HW,2013-05-23 15:20:00,
2013-05-23 09:25:00,35.6,34.0,29.79,WNW,293,0.0,0.0,94,0.00,,,0.10,WUHU216HW,2013-05-23 15:25:00,
2013-05-23 09:26:00,35.5,33.8,29.79,WNW,293,0.0,0.0,94,0.00,,,0.10,WUHU216HW,2013-05-23 15:26:00,
2013-05-23 09:30:00,35.5,33.8,29.79,WNW,293,0.0,0.0,94,0.00,,,0.10,WUHU216HW,2013-05-23 15:30:00,
2013-05-23 09:35:00,35.5,33.8,29.79,WNW,293,0.0,0.0,94,0.00,,,0.10,WUHU216HW,2013-05-23 15:35:00,
2013-05-23 09:56:00,36.2,34.6,29.80,WNW,293,0.0,0.0,94,0.01,,,0.10,WUHU216HW,2013-05-23 15:56:00,
2013-05-23 10:00:00,36.4,34.7,29.80,WNW,293,0.0,0.0,94,0.01,,,0.11,WUHU216HW,2013-05-23 16:00:00,
2013-05-23 10:01:00,36.4,34.7,29.80,WNW,293,0.0,0.0,94,0.01,,,0.11,WUHU216HW,2013-05-23 16:01:00,
2013-05-23 10:06:00,36.4,34.7,29.80,WNW,293,0.0,0.0,94,0.01,,,0.11,WUHU216HW,2013-05-23 16:06:00,
2013-05-23 10:30:00,37.1,35.5,29.80,WNW,293,0.2,0.2,94,0.02,,,0.11,WUHU216HW,2013-05-23 16:30:00,
2013-05-23 10:35:00,37.1,35.5,29.80,WNW,293,0.2,0.2,94,0.02,,,0.11,WUHU216HW,2013-05-23 16:35:00,
2013-05-23 11:00:00,37.4,35.6,29.80,West,270,0.4,0.4,93,0.04,,,0.12,WUHU216HW,2013-05-23 17:00:00,
2013-05-23 11:05:00,37.4,35.6,29.80,West,270,0.4,0.4,93,0.04,,,0.12,WUHU216HW,2013-05-23 17:05:00,
2013-05-23 11:30:00,38.9,37.0,29.80,North,0,0.0,0.0,93,0.07,,,0.15,WUHU216HW,2013-05-23 17:30:00,
2013-05-23 11:35:00,38.9,37.0,29.80,North,0,0.0,0.0,93,0.07,,,0.15,WUHU216HW,2013-05-23 17:35:00,
2013-05-23 12:00:00,43.4,41.0,29.79,ESE,113,0.0,0.0,91,0.10,,,0.19,WUHU216HW,2013-05-23 18:00:00,
2013-05-23 12:05:00,43.4,41.0,29.79,ESE,113,0.0,0.0,91,0.10,,,0.19,WUHU216HW,2013-05-23 18:05:00,
2013-05-23 12:30:00,41.9,37.7,29.79,West,270,0.7,0.7,85,0.12,,,0.25,WUHU216HW,2013-05-23 18:30:00,
2013-05-23 12:35:00,41.9,37.7,29.79,West,270,0.7,0.7,85,0.12,,,0.25,WUHU216HW,2013-05-23 18:35:00,
2013-05-23 13:00:00,44.1,39.9,29.79,NW,315,0.0,0.0,85,0.13,,,0.31,WUHU216HW,2013-05-23 19:00:00,
2013-05-23 13:05:00,44.1,39.9,29.79,NW,315,0.0,0.0,85,0.12,,,0.38,WUHU216HW,2013-05-23 19:05:00,
2013-05-23 13:10:00,44.1,39.9,29.79,NW,315,0.0,0.0,85,0.12,,,0.38,WUHU216HW,2013-05-23 19:10:00,
2013-05-23 13:30:00,42.8,38.9,29.79,NW,315,0.0,0.0,86,0.12,,,0.38,WUHU216HW,2013-05-23 19:30:00,
2013-05-23 13:35:00,42.8,38.9,29.79,NW,315,0.0,0.0,86,0.12,,,0.38,WUHU216HW,2013-05-23 19:35:00,
2013-05-23 14:00:00,45.7,40.9,29.79,WSW,248,0.4,0.4,83,0.10,,,0.43,WUHU216HW,2013-05-23 20:00:00,
2013-05-23 14:05:00,45.7,40.9,29.79,WSW,248,0.4,0.4,83,0.10,,,0.43,WUHU216HW,2013-05-23 20:05:00,
2013-05-23 14:30:00,46.4,40.0,29.78,West,270,0.4,0.4,78,0.10,,,0.48,WUHU216HW,2013-05-23 20:30:00,
2013-05-23 14:35:00,46.4,40.0,29.78,West,270,0.4,0.4,78,0.10,,,0.48,WUHU216HW,2013-05-23 20:35:00,
2013-05-23 15:00:00,50.2,43.6,29.78,East,90,0.0,0.0,78,0.10,,,0.55,WUHU216HW,2013-05-23 21:00:00,
2013-05-23 15:05:00,50.2,43.6,29.78,East,90,0.0,0.0,78,0.10,,,0.55,WUHU216HW,2013-05-23 21:05:00,
2013-05-23 15:30:00,50.2,42.6,29.78,SSE,158,1.8,1.8,75,0.06,,,0.59,WUHU216HW,2013-05-23 21:30:00,
2013-05-23 15:35:00,50.2,42.6,29.78,SSE,158,1.8,1.8,75,0.06,,,0.59,WUHU216HW,2013-05-23 21:35:00,
2013-05-23 16:00:00,50.4,41.4,29.78,SE,135,0.0,0.0,71,0.04,,,0.61,WUHU216HW,2013-05-23 22:00:00,
2013-05-23 16:05:00,50.4,41.4,29.78,SE,135,0.0,0.0,71,0.04,,,0.63,WUHU216HW,2013-05-23 22:05:00,
2013-05-23 16:10:00,50.4,41.4,29.78,SE,135,0.0,0.0,71,0.04,,,0.63,WUHU216HW,2013-05-23 22:10:00,
2013-05-23 16:30:00,53.3,41.0,29.78,NW,315,0.4,0.4,63,0.02,,,0.63,WUHU216HW,2013-05-23 22:30:00,
2013-05-23 16:35:00,53.3,41.0,29.78,NW,315,0.4,0.4,63,0.02,,,0.63,WUHU216HW,2013-05-23 22:35:00,
2013-05-23 17:00:00,52.4,39.3,29.77,NW,315,2.5,2.5,61,0.00,,,0.63,WUHU216HW,2013-05-23 23:00:00,
2013-05-23 17:05:00,52.4,39.3,29.77,NW,315,2.5,2.5,61,0.00,,,0.63,WUHU216HW,2013-05-23 23:05:00,
2013-05-23 17:30:00,53.1,38.7,29.77,WSW,248,0.7,0.7,58,0.00,,,0.63,WUHU216HW,2013-05-23 23:30:00,
2013-05-23 17:35:00,53.1,38.7,29.77,WSW,248,0.7,0.7,58,0.00,,,0.63,WUHU216HW,2013-05-23 23:35:00,
2013-05-23 18:00:00,56.9,39.0,29.77,NW,315,2.7,2.7,51,0.00,,,0.63,WUHU216HW,2013-05-24 00:00:00,
2013-05-23 18:05:00,56.9,39.0,29.77,NW,315,2.7,2.7,51,0.00,,,0.63,WUHU216HW,2013-05-24 00:05:00,
2013-05-23 18:30:00,57.4,38.4,29.77,NNW,338,1.1,1.1,49,0.00,,,0.63,WUHU216HW,2013-05-24 00:30:00,
2013-05-23 18:35:00,57.4,38.4,29.77,NNW,338,1.1,1.1,49,0.00,,,0.63,WUHU216HW,2013-05-24 00:35:00,
2013-05-23 19:00:00,61.7,41.2,29.76,NNW,338,0.4,0.4,47,0.00,,,0.63,WUHU216HW,2013-05-24 01:00:00,
2013-05-23 19:05:00,61.7,41.2,29.76,NNW,338,0.4,0.4,47,0.00,,,0.63,WUHU216HW,2013-05-24 01:05:00,
2013-05-23 19:30:00,64.8,44.6,29.75,ESE,113,0.0,0.0,48,0.00,,,0.63,WUHU216HW,2013-05-24 01:30:00,
2013-05-23 19:35:00,64.8,44.6,29.75,ESE,113,0.0,0.0,48,0.00,,,0.63,WUHU216HW,2013-05-24 01:35:00,
2013-05-23 20:00:00,57.1,40.6,29.75,NE,45,0.2,0.2,54,0.00,,,0.63,WUHU216HW,2013-05-24 02:00:00,
2013-05-23 20:05:00,57.1,40.6,29.75,NE,45,0.2,0.2,54,0.00,,,0.63,WUHU216HW,2013-05-24 02:05:00,
2013-05-23 20:10:00,57.1,40.6,29.75,NE,45,0.2,0.2,54,0.00,,,0.63,WUHU216HW,2013-05-24 02:10:00,
2013-05-23 20:30:00,52.0,40.6,29.74,ESE,113,0.0,0.0,65,0.00,,,0.63,WUHU216HW,2013-05-24 02:30:00,
2013-05-23 20:35:00,52.0,40.6,29.74,ESE,113,0.0,0.0,65,0.00,,,0.63,WUHU216HW,2013-05-24 02:35:00,
2013-05-23 21:00:00,49.3,39.6,29.74,ESE,113,0.0,0.0,69,0.00,,,0.63,WUHU216HW,2013-05-24 03:00:00,
2013-05-23 21:05:00,49.3,39.6,29.74,ESE,113,0.0,0.0,69,0.00,,,0.63,WUHU216HW,2013-05-24 03:05:00,
2013-05-23 21:30:00,47.2,39.0,29.74,ESE,113,0.0,0.0,73,0.00,,,0.63,WUHU216HW,2013-05-24 03:30:00,
2013-05-23 21:35:00,47.2,39.0,29.74,ESE,113,0.0,0.0,73,0.00,,,0.63,WUHU216HW,2013-05-24 03:35:00,
2013-05-23 22:00:00,45.0,38.5,29.75,NNW,338,0.0,0.0,78,0.00,,,0.63,WUHU216HW,2013-05-24 04:00:00,
2013-05-23 22:01:00,45.0,38.5,29.75,NNW,338,0.0,0.0,78,0.00,,,0.63,WUHU216HW,2013-05-24 04:01:00,
2013-05-23 22:02:00,45.0,38.5,29.75,NNW,338,0.0,0.0,78,0.00,,,0.63,WUHU216HW,2013-05-24 04:02:00,
2013-05-23 22:07:00,45.0,38.5,29.75,NNW,338,0.0,0.0,78,0.00,,,0.63,WUHU216HW,2013-05-24 04:07:00,
2013-05-23 22:30:00,44.3,38.5,29.73,ESE,113,0.0,0.0,80,0.00,,,0.63,WUHU216HW,2013-05-24 04:30:00,
2013-05-23 22:35:00,44.3,38.5,29.73,ESE,113,0.0,0.0,80,0.00,,,0.63,WUHU216HW,2013-05-24 04:35:00,
2013-05-23 23:00:00,43.2,37.7,29.74,ESE,113,0.0,0.0,81,0.00,,,0.63,WUHU216HW,2013-05-24 05:00:00,
2013-05-23 23:05:00,43.2,37.7,29.74,ESE,113,0.0,0.0,81,0.00,,,0.63,WUHU216HW,2013-05-24 05:05:00,
2013-05-23 23:30:00,41.2,36.7,29.73,West,270,0.0,0.0,84,0.00,,,0.63,WUHU216HW,2013-05-24 05:30:00,
2013-05-23 23:35:00,41.2,36.7,29.73,West,270,0.0,0.0,84,0.00,,,0.63,WUHU216HW,2013-05-24 05:35:00,